User: anonymous   Login
Location: Degersen
(52.2871°N, 9.5716°E)
Time: 14:46:16
(UTC+00:00)
Language:

Gbstr 26 Del rocket - Orbit

View from above orbital plane
View from above orbital plane
View from above satellite
View from above satellite

Ground track
Ground track

The orbit is defined by the following mean orbital elements,

1 25876U          26074.24672219 +.00000000 +00000-0 +23199-3 0 00000
2 25876  51.7617 279.0834 0502519   4.8245 355.7277 14.11855322    03
Epoch (UTC): 15 March 2026 05:55:16
Eccentricity: 0.0502519
inclination: 51.7617°
perigee height: 490 km
apogee height: 1216 km
right ascension of ascending node: 279.0834°
argument of perigee: 4.8245°
revolutions per day: 14.11855322
mean anomaly at epoch: 355.7277°

The dashed part of the orbit path shows where the satellite is in the earth's shadow,  

DLR